Home   Weather   Kiel   Past weeks

Flag for Germany Past Weather in Kiel, Schleswig-Holstein, Germany — Yesterday and Last 2 Weeks

32 °F

Ice fog.

Feels Like: 32 °F
Forecast: 47 / 56 °F
Wind: 1 mph from Southeast

Location: Hohn

Current Time: Oct 26, 2016 at 6:03:34 AM

Latest Report: Oct 26, 2016 at 5:20 AM

Visibility: 0 mi

Pressure: 30.36 "Hg

Humidity: 93%

Dew Point: 30 °F

Location of KielLocation

Past Weather in Kiel — Graph


Kiel Temperature Yesterday

Maximum temperature yesterday: 50 °F (at 3:20 PM)
Minimum temperature yesterday: 32 °F (at 9:50 PM)
Average temperature yesterday: 40 °F

High & Low Weather Summary for the Past Weeks

High57 °F (Oct 18, 2:20 PM)100% (Oct 11, 5:20 PM)30.36 "Hg (Oct 11, 5:20 PM)
Low30 °F (Oct 26, 12:20 AM)66% (Oct 13, 8:20 PM)29.86 "Hg (Oct 15, 4:20 AM)
Average46 °F91%30.07 "Hg
* Reported Oct 11 5:20 AM — Oct 26 5:03 AM, Kiel, Weather by CustomWeather, © 2016

Note: Actual official high and low records may vary slightly from our data, if they occured in-between our weather recording intervals... More about our weather records


Kiel Weather History for the Previous 24 Hours

Scroll right to see more
Time TempWeatherWind HumidityBarometerVisibility
5:03 AM
Wed, Oct 26
32 °FIce fog.1 mph93%30.36 "Hg0 mi
4:20 AM30 °FIce fog.No wind100%30.36 "Hg0 mi
3:20 AM30 °FIce fog.2 mph100%30.36 "Hg0 mi
2:20 AM30 °FIce fog.No wind100%30.36 "Hg0 mi
1:20 AM32 °FIce fog.1 mph93%30.36 "Hg0 mi
12:20 AM30 °FIce fog.1 mph100%30.33 "Hg0 mi
11:20 PM
Tue, Oct 25
32 °FIce fog.No wind93%30.33 "Hg0 mi
10:20 PM32 °FIce fog.1 mph100%30.33 "Hg0 mi
9:50 PM32 °FFog.No wind100%30.33 "Hg1 mi
9:20 PM34 °FFog.1 mph93%30.33 "Hg1 mi
8:20 PM36 °FFog.1 mph93%30.33 "Hg0 mi
8:04 PM36 °FFog.1 mph100%30.33 "Hg1 mi
7:50 PM36 °FFog.2 mph100%30.30 "Hg2 mi
7:20 PM37 °FFog.1 mph100%30.30 "Hg4 mi
6:20 PM39 °FFog.2 mph93%30.27 "HgN/A
5:20 PM46 °FPassing clouds.5 mph82%30.27 "Hg6 mi
4:20 PM48 °FPassing clouds.7 mph76%30.24 "Hg6 mi
3:20 PM50 °FPassing clouds.5 mph76%30.24 "Hg6 mi
2:20 PM48 °FScattered clouds.8 mph82%30.24 "Hg5 mi
1:20 PM48 °FScattered clouds.3 mph82%30.21 "HgN/A
12:47 PM48 °FScattered clouds.6 mph82%30.21 "HgN/A
12:20 PM46 °FPartly sunny.7 mph87%30.21 "Hg5 mi
11:20 AM45 °FFog.7 mph100%30.21 "Hg2 mi
10:58 AM45 °FFog.7 mph100%30.21 "Hg1 mi
10:20 AM43 °FFog.5 mph100%30.18 "Hg1 mi
9:48 AM43 °FFog.6 mph100%30.18 "Hg2 mi
9:20 AM43 °FFog.6 mph93%30.15 "Hg1 mi
9:03 AM41 °FFog.5 mph100%30.15 "Hg1 mi
8:20 AM36 °FFog.3 mph100%30.15 "Hg1 mi
8:03 AM36 °FFog.5 mph100%30.12 "Hg1 mi
7:20 AM36 °FFog.5 mph100%30.12 "Hg1 mi
6:47 AM36 °FFog.3 mph100%30.12 "Hg1 mi
6:20 AM36 °FFog.3 mph100%30.12 "Hg1 mi
Weather by CustomWeather, © 2016

See weather overviewHow to use our weather pages